Time,TemperatureF,DewpointF,PressureIn,WindDirection,WindDirectionDegrees,WindSpeedMPH,WindSpeedGustMPH,Humidity,HourlyPrecipIn,Conditions,Clouds,dailyrainin,SolarRadiationWatts/m^2,SoftwareType,DateUTC
2013-03-31 00:00:00,41.0,22.8,30.02,SE,131,0.0,3.0,48,0.00,,---,0.00,0.00,VWS V14.01,2013-03-31 04:00:00,
2013-03-31 00:05:00,41.4,23.2,30.02,SE,133,0.0,5.0,48,0.00,,---,0.00,0.00,VWS V14.01,2013-03-31 04:05:00,
2013-03-31 00:10:00,41.7,25.4,30.02,SSE,152,0.0,1.0,52,0.00,,---,0.00,0.00,VWS V14.01,2013-03-31 04:10:00,
2013-03-31 00:15:00,41.6,23.9,30.02,ESE,121,0.0,3.0,49,0.00,,---,0.00,0.00,VWS V14.01,2013-03-31 04:15:00,
2013-03-31 00:20:00,41.7,22.5,30.01,South,178,0.0,2.0,46,0.00,,---,0.00,0.00,VWS V14.01,2013-03-31 04:20:00,
2013-03-31 00:30:00,42.4,22.6,30.01,South,182,0.0,4.0,45,0.00,,---,0.00,0.00,VWS V14.01,2013-03-31 04:30:00,
2013-03-31 00:35:00,42.6,21.7,30.01,ESE,115,0.0,3.0,43,0.00,,---,0.00,0.00,VWS V14.01,2013-03-31 04:35:00,
2013-03-31 00:40:00,42.6,23.3,30.01,South,175,0.0,2.0,46,0.00,,---,0.00,0.00,VWS V14.01,2013-03-31 04:40:00,
2013-03-31 00:50:00,41.6,26.6,30.01,South,169,0.0,1.0,55,0.00,,---,0.00,0.00,VWS V14.01,2013-03-31 04:50:00,
2013-03-31 01:00:00,40.8,26.8,30.00,SSE,165,0.0,0.0,57,0.00,,---,0.00,0.00,VWS V14.01,2013-03-31 05:00:00,
2013-03-31 01:05:00,40.4,26.4,30.00,SSE,148,0.0,0.0,57,0.00,,---,0.00,0.00,VWS V14.01,2013-03-31 05:05:00,
2013-03-31 01:15:00,40.3,22.7,30.00,SE,129,0.0,0.0,49,0.00,,---,0.00,0.00,VWS V14.01,2013-03-31 05:15:00,
2013-03-31 01:20:00,40.4,23.2,30.00,SE,129,0.0,0.0,50,0.00,,---,0.00,0.00,VWS V14.01,2013-03-31 05:20:00,
2013-03-31 01:25:00,40.5,25.6,30.00,SE,129,0.0,0.0,55,0.00,,---,0.00,0.00,VWS V14.01,2013-03-31 05:25:00,
2013-03-31 01:35:00,40.0,25.6,30.00,SE,129,0.0,0.0,56,0.00,,---,0.00,0.00,VWS V14.01,2013-03-31 05:35:00,
2013-03-31 01:40:00,39.9,24.6,29.99,SE,126,0.0,2.0,54,0.00,,---,0.00,0.00,VWS V14.01,2013-03-31 05:40:00,
2013-03-31 01:50:00,39.9,23.3,29.99,ESE,121,0.0,1.0,51,0.00,,---,0.00,0.00,VWS V14.01,2013-03-31 05:50:00,
2013-03-31 02:00:00,40.1,22.5,29.98,ESE,114,0.0,1.0,49,0.00,,---,0.00,0.00,VWS V14.01,2013-03-31 06:00:00,
2013-03-31 02:05:00,40.3,21.7,29.98,ESE,105,0.0,0.0,47,0.00,,---,0.00,0.00,VWS V14.01,2013-03-31 06:05:00,
2013-03-31 02:15:00,41.0,23.3,29.97,SSW,196,0.0,1.0,49,0.00,,---,0.00,0.00,VWS V14.01,2013-03-31 06:15:00,
2013-03-31 02:25:00,41.7,23.0,29.97,ESE,123,0.0,2.0,47,0.00,,---,0.00,0.00,VWS V14.01,2013-03-31 06:25:00,
2013-03-31 02:30:00,42.1,23.3,29.97,SE,127,0.0,1.0,47,0.00,,---,0.00,0.00,VWS V14.01,2013-03-31 06:30:00,
2013-03-31 02:35:00,42.4,23.1,29.96,East,89,0.0,4.0,46,0.00,,---,0.00,0.00,VWS V14.01,2013-03-31 06:35:00,
2013-03-31 02:45:00,42.7,24.9,29.95,East,92,1.0,1.0,49,0.00,,---,0.00,0.00,VWS V14.01,2013-03-31 06:45:00,
2013-03-31 02:55:00,42.9,24.1,29.95,ESE,109,0.0,2.0,47,0.00,,---,0.00,0.00,VWS V14.01,2013-03-31 06:55:00,
2013-03-31 03:00:00,43.1,24.3,29.94,SE,127,0.0,4.0,47,0.00,,---,0.00,0.00,VWS V14.01,2013-03-31 07:00:00,
2013-03-31 03:05:00,43.4,24.0,29.94,South,188,2.0,2.0,46,0.00,,---,0.00,0.00,VWS V14.01,2013-03-31 07:05:00,
2013-03-31 03:15:00,43.7,24.3,29.94,SE,135,0.0,5.0,46,0.00,,---,0.00,0.00,VWS V14.01,2013-03-31 07:15:00,
2013-03-31 03:20:00,43.8,24.4,29.93,SE,139,0.0,6.0,46,0.00,,---,0.00,0.00,VWS V14.01,2013-03-31 07:20:00,
2013-03-31 03:25:00,43.9,24.5,29.93,SE,125,0.0,2.0,46,0.00,,---,0.00,0.00,VWS V14.01,2013-03-31 07:25:00,
2013-03-31 03:30:00,44.0,24.0,29.93,SSE,148,0.0,5.0,45,0.00,,---,0.00,0.00,VWS V14.01,2013-03-31 07:30:00,
2013-03-31 03:40:00,44.0,25.1,29.92,NE,51,0.0,1.0,47,0.00,,---,0.00,0.00,VWS V14.01,2013-03-31 07:40:00,
2013-03-31 03:50:00,43.4,24.0,29.92,East,82,0.0,1.0,46,0.00,,---,0.00,0.00,VWS V14.01,2013-03-31 07:50:00,
2013-03-31 03:55:00,43.2,23.3,29.91,SSE,155,0.0,0.0,45,0.00,,---,0.00,0.00,VWS V14.01,2013-03-31 07:55:00,
2013-03-31 04:00:00,43.0,23.6,29.91,East,90,0.0,0.0,46,0.00,,---,0.00,0.00,VWS V14.01,2013-03-31 08:00:00,
2013-03-31 04:10:00,42.6,23.3,29.90,SSE,153,0.0,2.0,46,0.00,,---,0.00,0.00,VWS V14.01,2013-03-31 08:10:00,
2013-03-31 04:15:00,42.6,23.8,29.90,ESE,120,0.0,0.0,47,0.00,,---,0.00,0.00,VWS V14.01,2013-03-31 08:15:00,
2013-03-31 04:25:00,42.5,23.7,29.89,East,91,1.0,1.0,47,0.00,,---,0.00,0.00,VWS V14.01,2013-03-31 08:25:00,
2013-03-31 04:30:00,42.4,23.6,29.89,SE,139,0.0,2.0,47,0.00,,---,0.00,0.00,VWS V14.01,2013-03-31 08:30:00,
2013-03-31 04:40:00,42.3,23.5,29.88,East,80,0.0,3.0,47,0.00,,---,0.00,0.00,VWS V14.01,2013-03-31 08:40:00,
2013-03-31 04:50:00,42.3,24.0,29.88,ESE,109,0.0,0.0,48,0.00,,---,0.00,0.00,VWS V14.01,2013-03-31 08:50:00,
2013-03-31 05:00:00,42.2,23.9,29.88,ESE,102,0.0,0.0,48,0.00,,---,0.00,0.00,VWS V14.01,2013-03-31 09:00:00,
2013-03-31 05:05:00,42.2,23.9,29.88,East,100,0.0,1.0,48,0.00,,---,0.00,0.00,VWS V14.01,2013-03-31 09:05:00,
2013-03-31 05:10:00,42.3,24.0,29.88,East,94,0.0,1.0,48,0.00,,---,0.00,0.00,VWS V14.01,2013-03-31 09:10:00,
2013-03-31 05:20:00,42.7,24.4,29.87,SSE,153,0.0,3.0,48,0.00,,---,0.00,0.00,VWS V14.01,2013-03-31 09:20:00,
2013-03-31 05:25:00,42.7,24.4,29.87,East,97,1.0,3.0,48,0.00,,---,0.00,0.00,VWS V14.01,2013-03-31 09:25:00,
2013-03-31 05:30:00,42.9,24.6,29.87,ESE,115,3.0,3.0,48,0.00,,---,0.00,0.00,VWS V14.01,2013-03-31 09:30:00,
2013-03-31 05:40:00,43.1,25.3,29.87,East,83,0.0,5.0,49,0.00,,---,0.00,0.00,VWS V14.01,2013-03-31 09:40:00,
2013-03-31 05:50:00,43.0,24.2,29.86,SSW,192,0.0,4.0,47,0.00,,---,0.00,0.00,VWS V14.01,2013-03-31 09:50:00,
2013-03-31 06:00:00,43.2,27.2,29.86,SW,218,0.0,3.0,53,0.00,,---,0.00,0.00,VWS V14.01,2013-03-31 10:00:00,
2013-03-31 06:05:00,43.3,23.9,29.86,SE,137,0.0,5.0,46,0.00,,---,0.00,0.00,VWS V14.01,2013-03-31 10:05:00,
2013-03-31 06:15:00,43.6,24.2,29.86,South,188,0.0,1.0,46,0.00,,---,0.00,0.00,VWS V14.01,2013-03-31 10:15:00,
2013-03-31 06:20:00,43.6,24.7,29.86,ESE,109,1.0,1.0,47,0.00,,---,0.00,0.00,VWS V14.01,2013-03-31 10:20:00,
2013-03-31 06:25:00,43.5,25.1,29.85,SSE,155,0.0,1.0,48,0.00,,---,0.00,0.00,VWS V14.01,2013-03-31 10:25:00,
2013-03-31 06:30:00,43.5,25.1,29.85,SSE,155,0.0,0.0,48,0.00,,---,0.00,0.00,VWS V14.01,2013-03-31 10:30:00,
2013-03-31 06:40:00,43.4,24.5,29.85,SE,139,0.0,4.0,47,0.00,,---,0.00,0.00,VWS V14.01,2013-03-31 10:40:00,
2013-03-31 06:50:00,43.5,26.1,29.85,South,170,0.0,3.0,50,0.00,,---,0.00,0.00,VWS V14.01,2013-03-31 10:50:00,
2013-03-31 06:55:00,43.5,25.1,29.85,ESE,111,0.0,3.0,48,0.00,,---,0.00,0.00,VWS V14.01,2013-03-31 10:55:00,
2013-03-31 07:05:00,43.4,25.0,29.84,South,184,0.0,0.0,48,0.00,,---,0.00,0.00,VWS V14.01,2013-03-31 11:05:00,
2013-03-31 07:10:00,43.4,26.0,29.84,ESE,123,0.0,0.0,50,0.00,,---,0.00,0.00,VWS V14.01,2013-03-31 11:10:00,
2013-03-31 07:20:00,43.2,25.4,29.84,East,90,0.0,0.0,49,0.00,,---,0.00,5.00,VWS V14.01,2013-03-31 11:20:00,
2013-03-31 07:30:00,43.3,25.9,29.84,SW,214,0.0,2.0,50,0.00,,---,0.00,14.00,VWS V14.01,2013-03-31 11:30:00,
2013-03-31 07:35:00,43.4,25.0,29.84,SW,216,0.0,0.0,48,0.00,,---,0.00,16.00,VWS V14.01,2013-03-31 11:35:00,
2013-03-31 07:45:00,43.8,25.4,29.84,NNW,337,0.0,2.0,48,0.00,,---,0.00,21.00,VWS V14.01,2013-03-31 11:45:00,
2013-03-31 07:50:00,44.1,25.7,29.84,South,172,2.0,4.0,48,0.00,,---,0.00,26.00,VWS V14.01,2013-03-31 11:50:00,
2013-03-31 07:55:00,44.4,26.0,29.84,SSW,211,1.0,4.0,48,0.00,,---,0.00,30.00,VWS V14.01,2013-03-31 11:55:00,
2013-03-31 08:00:00,44.6,26.1,29.84,South,181,4.0,4.0,48,0.00,,---,0.00,32.00,VWS V14.01,2013-03-31 12:00:00,
2013-03-31 08:10:00,45.2,26.2,29.84,SW,227,3.0,3.0,47,0.00,,---,0.00,33.00,VWS V14.01,2013-03-31 12:10:00,
2013-03-31 08:15:00,45.4,25.9,29.84,West,259,0.0,4.0,46,0.00,,---,0.00,35.00,VWS V14.01,2013-03-31 12:15:00,
2013-03-31 08:20:00,45.5,26.5,29.84,WSW,248,3.0,4.0,47,0.00,,---,0.00,40.00,VWS V14.01,2013-03-31 12:20:00,
2013-03-31 08:25:00,45.6,26.5,29.84,SSW,208,0.0,5.0,47,0.00,,---,0.00,46.00,VWS V14.01,2013-03-31 12:25:00,
2013-03-31 08:35:00,45.9,26.8,29.83,SW,219,0.0,5.0,47,0.00,,---,0.00,40.00,VWS V14.01,2013-03-31 12:35:00,
2013-03-31 08:45:00,46.2,27.1,29.84,SSW,208,5.0,9.0,47,0.00,,---,0.00,62.00,VWS V14.01,2013-03-31 12:45:00,
2013-03-31 08:50:00,46.4,27.3,29.83,SSW,211,6.0,8.0,47,0.00,,---,0.00,88.00,VWS V14.01,2013-03-31 12:50:00,
2013-03-31 09:00:00,46.7,28.1,29.84,SW,232,1.0,4.0,48,0.00,,---,0.00,70.00,VWS V14.01,2013-03-31 13:00:00,
2013-03-31 09:05:00,46.7,29.5,29.84,West,259,3.0,4.0,51,0.00,,---,0.00,65.00,VWS V14.01,2013-03-31 13:05:00,
2013-03-31 09:10:00,46.7,29.5,29.83,NW,315,1.0,7.0,51,0.00,,---,0.00,81.00,VWS V14.01,2013-03-31 13:10:00,
2013-03-31 09:20:00,46.9,31.1,29.83,SW,215,3.0,6.0,54,0.00,,---,0.00,83.00,VWS V14.01,2013-03-31 13:20:00,
2013-03-31 09:30:00,47.3,33.3,29.83,SW,226,2.0,10.0,58,0.00,,---,0.00,77.00,VWS V14.01,2013-03-31 13:30:00,
2013-03-31 09:35:00,47.3,34.1,29.83,SSW,207,0.0,10.0,60,0.00,,---,0.00,79.00,VWS V14.01,2013-03-31 13:35:00,
2013-03-31 09:45:00,47.1,36.0,29.84,West,275,6.0,10.0,65,0.00,,---,0.00,79.00,VWS V14.01,2013-03-31 13:45:00,
2013-03-31 09:50:00,46.9,36.9,29.84,West,261,3.0,10.0,68,0.01,,---,0.01,76.00,VWS V14.01,2013-03-31 13:50:00,
2013-03-31 09:55:00,46.6,37.3,29.84,WSW,241,1.0,8.0,70,0.01,,---,0.01,70.00,VWS V14.01,2013-03-31 13:55:00,
2013-03-31 10:00:00,46.5,38.0,29.84,WSW,249,1.0,5.0,72,0.01,,---,0.01,88.00,VWS V14.01,2013-03-31 14:00:00,
2013-03-31 10:10:00,46.1,39.0,29.84,WNW,286,3.0,5.0,76,0.01,,---,0.01,81.00,VWS V14.01,2013-03-31 14:10:00,
2013-03-31 10:15:00,46.0,39.5,29.83,SSW,194,4.0,6.0,78,0.02,,---,0.02,86.00,VWS V14.01,2013-03-31 14:15:00,
2013-03-31 10:20:00,45.8,40.0,29.83,West,265,1.0,4.0,80,0.02,,---,0.02,118.00,VWS V14.01,2013-03-31 14:20:00,
2013-03-31 10:30:00,45.7,40.8,29.83,WSW,253,2.0,2.0,83,0.03,,---,0.03,91.00,VWS V14.01,2013-03-31 14:30:00,
2013-03-31 10:35:00,45.7,40.8,29.83,SW,234,0.0,3.0,83,0.03,,---,0.03,118.00,VWS V14.01,2013-03-31 14:35:00,
2013-03-31 10:40:00,45.7,41.2,29.83,WSW,254,0.0,4.0,84,0.03,,---,0.03,84.00,VWS V14.01,2013-03-31 14:40:00,
2013-03-31 10:45:00,45.7,41.2,29.83,SSW,209,0.0,3.0,84,0.03,,---,0.03,100.00,VWS V14.01,2013-03-31 14:45:00,
2013-03-31 10:55:00,45.6,41.7,29.82,SW,229,0.0,1.0,86,0.03,,---,0.04,148.00,VWS V14.01,2013-03-31 14:55:00,
2013-03-31 11:05:00,45.6,41.7,29.81,SW,224,2.0,4.0,86,0.04,,---,0.05,144.00,VWS V14.01,2013-03-31 15:05:00,
2013-03-31 11:15:00,45.7,42.4,29.81,SW,236,3.0,3.0,88,0.04,,---,0.05,137.00,VWS V14.01,2013-03-31 15:15:00,
2013-03-31 11:20:00,45.9,42.5,29.81,South,180,0.0,3.0,88,0.03,,---,0.05,146.00,VWS V14.01,2013-03-31 15:20:00,
2013-03-31 11:30:00,46.3,43.2,29.81,SSW,206,1.0,3.0,89,0.02,,---,0.05,197.00,VWS V14.01,2013-03-31 15:30:00,
2013-03-31 11:35:00,46.4,43.0,29.80,WSW,242,2.0,2.0,88,0.02,,---,0.05,230.00,VWS V14.01,2013-03-31 15:35:00,
2013-03-31 11:45:00,46.8,43.4,29.80,South,184,2.0,4.0,88,0.02,,---,0.05,287.00,VWS V14.01,2013-03-31 15:45:00,
2013-03-31 11:50:00,46.8,43.4,29.79,ESE,123,2.0,5.0,88,0.02,,---,0.05,285.00,VWS V14.01,2013-03-31 15:50:00,
2013-03-31 12:02:00,46.7,43.3,29.78,South,182,2.0,4.0,88,0.01,,---,0.05,220.00,VWS V14.01,2013-03-31 16:02:00,
2013-03-31 12:10:00,46.9,43.5,29.78,SSW,206,4.0,5.0,88,0.00,,---,0.05,367.00,VWS V14.01,2013-03-31 16:10:00,
2013-03-31 12:20:00,46.9,43.5,29.77,SE,137,0.0,3.0,88,0.01,,---,0.06,292.00,VWS V14.01,2013-03-31 16:20:00,
2013-03-31 12:25:00,47.3,44.2,29.77,ENE,67,0.0,4.0,89,0.01,,---,0.06,295.00,VWS V14.01,2013-03-31 16:25:00,
2013-03-31 12:30:00,47.6,43.9,29.77,ESE,112,0.0,2.0,87,0.01,,---,0.06,171.00,VWS V14.01,2013-03-31 16:30:00,
2013-03-31 12:35:00,47.7,44.0,29.76,SE,138,1.0,4.0,87,0.01,,---,0.06,200.00,VWS V14.01,2013-03-31 16:35:00,
2013-03-31 12:45:00,47.9,43.6,29.76,SSW,211,0.0,3.0,85,0.01,,---,0.06,271.00,VWS V14.01,2013-03-31 16:45:00,
2013-03-31 12:55:00,47.9,43.3,29.76,SSW,213,0.0,5.0,84,0.01,,---,0.06,197.00,VWS V14.01,2013-03-31 16:55:00,
2013-03-31 13:00:00,47.9,43.0,29.75,WSW,255,1.0,2.0,83,0.01,,---,0.06,297.00,VWS V14.01,2013-03-31 17:00:00,
2013-03-31 13:10:00,48.4,43.8,29.75,SSW,205,1.0,3.0,84,0.01,,---,0.06,225.00,VWS V14.01,2013-03-31 17:10:00,
2013-03-31 13:15:00,48.5,43.6,29.75,SSW,209,2.0,4.0,83,0.01,,---,0.06,114.00,VWS V14.01,2013-03-31 17:15:00,
2013-03-31 13:20:00,48.3,43.4,29.75,SW,235,0.0,5.0,83,0.00,,---,0.06,139.00,VWS V14.01,2013-03-31 17:20:00,
2013-03-31 13:30:00,48.1,43.2,29.74,SSW,202,0.0,5.0,83,0.00,,---,0.06,109.00,VWS V14.01,2013-03-31 17:30:00,
2013-03-31 13:35:00,48.1,43.2,29.74,South,171,2.0,4.0,83,0.00,,---,0.06,141.00,VWS V14.01,2013-03-31 17:35:00,
2013-03-31 13:45:00,48.1,43.2,29.74,West,261,3.0,5.0,83,0.00,,---,0.06,127.00,VWS V14.01,2013-03-31 17:45:00,
2013-03-31 13:55:00,48.1,43.8,29.74,South,184,2.0,5.0,85,0.00,,---,0.06,116.00,VWS V14.01,2013-03-31 17:55:00,
2013-03-31 14:00:00,48.1,43.5,29.74,WSW,252,1.0,3.0,84,0.00,,---,0.06,90.00,VWS V14.01,2013-03-31 18:00:00,
2013-03-31 14:05:00,48.1,43.2,29.74,West,268,5.0,8.0,83,0.00,,---,0.06,83.00,VWS V14.01,2013-03-31 18:05:00,
2013-03-31 14:15:00,47.9,43.0,29.74,SSW,197,3.0,6.0,83,0.00,,---,0.06,72.00,VWS V14.01,2013-03-31 18:15:00,
2013-03-31 14:20:00,47.8,43.2,29.73,WSW,249,1.0,5.0,84,0.00,,---,0.06,70.00,VWS V14.01,2013-03-31 18:20:00,
2013-03-31 14:25:00,47.7,43.4,29.74,WSW,238,2.0,6.0,85,0.00,,---,0.06,72.00,VWS V14.01,2013-03-31 18:25:00,
2013-03-31 14:35:00,47.5,44.1,29.73,WSW,245,2.0,3.0,88,0.00,,---,0.06,70.00,VWS V14.01,2013-03-31 18:35:00,
2013-03-31 14:40:00,47.4,44.3,29.73,WSW,245,0.0,2.0,89,0.00,,---,0.06,47.00,VWS V14.01,2013-03-31 18:40:00,
2013-03-31 14:50:00,47.1,44.3,29.73,SW,215,0.0,3.0,90,0.00,,---,0.06,77.00,VWS V14.01,2013-03-31 18:50:00,
2013-03-31 14:55:00,47.0,44.5,29.73,SW,229,0.0,2.0,91,0.00,,---,0.06,35.00,VWS V14.01,2013-03-31 18:55:00,
2013-03-31 15:00:00,47.0,44.5,29.73,WSW,252,0.0,1.0,91,0.00,,---,0.06,33.00,VWS V14.01,2013-03-31 19:00:00,
2013-03-31 15:05:00,47.0,44.8,29.73,WNW,284,2.0,4.0,92,0.00,,---,0.06,33.00,VWS V14.01,2013-03-31 19:05:00,
2013-03-31 15:15:00,47.0,44.8,29.73,WSW,254,0.0,7.0,92,0.00,,---,0.06,86.00,VWS V14.01,2013-03-31 19:15:00,
2013-03-31 15:20:00,47.0,44.8,29.72,WSW,250,0.0,2.0,92,0.00,,---,0.06,104.00,VWS V14.01,2013-03-31 19:20:00,
2013-03-31 15:30:00,47.2,45.0,29.73,West,265,4.0,5.0,92,0.00,,---,0.06,69.00,VWS V14.01,2013-03-31 19:30:00,
2013-03-31 15:40:00,47.3,45.1,29.73,NW,304,0.0,6.0,92,0.00,,---,0.06,40.00,VWS V14.01,2013-03-31 19:40:00,
2013-03-31 15:50:00,47.2,45.0,29.72,West,261,0.0,2.0,92,0.01,,---,0.07,49.00,VWS V14.01,2013-03-31 19:50:00,
2013-03-31 15:55:00,47.2,45.0,29.72,SW,233,1.0,2.0,92,0.01,,---,0.07,58.00,VWS V14.01,2013-03-31 19:55:00,
2013-03-31 16:05:00,47.2,45.3,29.72,SW,231,0.0,3.0,93,0.01,,---,0.07,60.00,VWS V14.01,2013-03-31 20:05:00,
2013-03-31 16:10:00,47.1,45.2,29.72,WSW,258,4.0,4.0,93,0.01,,---,0.07,62.00,VWS V14.01,2013-03-31 20:10:00,
2013-03-31 16:15:00,47.1,45.2,29.72,WNW,288,0.0,4.0,93,0.01,,---,0.07,32.00,VWS V14.01,2013-03-31 20:15:00,
2013-03-31 16:20:00,47.1,45.2,29.71,WNW,288,0.0,0.0,93,0.02,,---,0.08,62.00,VWS V14.01,2013-03-31 20:20:00,
2013-03-31 16:30:00,47.2,45.3,29.71,WNW,290,1.0,4.0,93,0.02,,---,0.08,58.00,VWS V14.01,2013-03-31 20:30:00,
2013-03-31 16:40:00,47.3,45.4,29.71,SW,236,1.0,4.0,93,0.03,,---,0.09,93.00,VWS V14.01,2013-03-31 20:40:00,
2013-03-31 16:45:00,47.3,45.4,29.71,WSW,240,1.0,4.0,93,0.03,,---,0.09,118.00,VWS V14.01,2013-03-31 20:45:00,
2013-03-31 16:50:00,47.4,45.5,29.71,West,267,0.0,2.0,93,0.02,,---,0.09,98.00,VWS V14.01,2013-03-31 20:50:00,
2013-03-31 17:00:00,47.5,45.6,29.72,SW,232,4.0,9.0,93,0.02,,---,0.09,76.00,VWS V14.01,2013-03-31 21:00:00,
2013-03-31 17:05:00,47.4,45.2,29.72,WSW,255,1.0,7.0,92,0.02,,---,0.09,74.00,VWS V14.01,2013-03-31 21:05:00,
2013-03-31 17:15:00,47.4,45.5,29.72,WNW,284,0.0,4.0,93,0.02,,---,0.09,51.00,VWS V14.01,2013-03-31 21:15:00,
2013-03-31 17:20:00,47.4,45.2,29.72,West,275,1.0,6.0,92,0.02,,---,0.09,51.00,VWS V14.01,2013-03-31 21:20:00,
2013-03-31 17:25:00,47.4,45.5,29.71,West,259,1.0,5.0,93,0.02,,---,0.10,51.00,VWS V14.01,2013-03-31 21:25:00,
2013-03-31 17:30:00,47.4,45.5,29.71,WSW,250,2.0,6.0,93,0.02,,---,0.10,65.00,VWS V14.01,2013-03-31 21:30:00,
2013-03-31 17:40:00,47.4,45.5,29.72,West,281,0.0,4.0,93,0.01,,---,0.10,79.00,VWS V14.01,2013-03-31 21:40:00,
2013-03-31 17:45:00,47.4,45.5,29.71,WNW,285,4.0,5.0,93,0.01,,---,0.10,84.00,VWS V14.01,2013-03-31 21:45:00,
2013-03-31 17:55:00,47.6,45.7,29.72,NNW,327,1.0,5.0,93,0.01,,---,0.10,113.00,VWS V14.01,2013-03-31 21:55:00,
2013-03-31 18:00:00,47.8,45.9,29.72,SW,233,0.0,4.0,93,0.01,,---,0.10,250.00,VWS V14.01,2013-03-31 22:00:00,
2013-03-31 18:05:00,48.1,46.2,29.71,NNW,330,0.0,8.0,93,0.01,,---,0.10,162.00,VWS V14.01,2013-03-31 22:05:00,
2013-03-31 18:15:00,48.2,45.7,29.72,WNW,296,0.0,5.0,91,0.01,,---,0.10,98.00,VWS V14.01,2013-03-31 22:15:00,
2013-03-31 18:20:00,48.2,45.7,29.72,West,265,0.0,7.0,91,0.01,,---,0.10,76.00,VWS V14.01,2013-03-31 22:20:00,
2013-03-31 18:30:00,48.2,45.7,29.72,WNW,303,0.0,6.0,91,0.00,,---,0.10,33.00,VWS V14.01,2013-03-31 22:30:00,
2013-03-31 18:40:00,48.0,45.2,29.73,NW,304,0.0,13.0,90,0.00,,---,0.10,19.00,VWS V14.01,2013-03-31 22:40:00,
2013-03-31 18:45:00,48.0,45.5,29.73,West,271,0.0,7.0,91,0.00,,---,0.10,18.00,VWS V14.01,2013-03-31 22:45:00,
2013-03-31 18:50:00,47.9,45.4,29.73,WNW,285,1.0,3.0,91,0.00,,---,0.10,14.00,VWS V14.01,2013-03-31 22:50:00,
2013-03-31 18:55:00,47.8,45.0,29.73,West,266,0.0,4.0,90,0.00,,---,0.10,12.00,VWS V14.01,2013-03-31 22:55:00,
2013-03-31 19:05:00,47.6,44.8,29.73,WSW,257,0.0,8.0,90,0.00,,---,0.10,7.00,VWS V14.01,2013-03-31 23:05:00,
2013-03-31 19:15:00,47.6,44.8,29.72,West,267,1.0,7.0,90,0.00,,---,0.10,11.00,VWS V14.01,2013-03-31 23:15:00,
2013-03-31 19:20:00,47.6,44.8,29.72,WSW,241,2.0,8.0,90,0.00,,---,0.10,12.00,VWS V14.01,2013-03-31 23:20:00,
2013-03-31 19:30:00,47.6,44.8,29.73,SW,219,3.0,4.0,90,0.00,,---,0.10,9.00,VWS V14.01,2013-03-31 23:30:00,
2013-03-31 19:40:00,47.5,44.7,29.73,WSW,249,0.0,6.0,90,0.00,,---,0.10,0.00,VWS V14.01,2013-03-31 23:40:00,
2013-03-31 19:45:00,47.4,44.6,29.73,WSW,251,2.0,4.0,90,0.00,,---,0.10,0.00,VWS V14.01,2013-03-31 23:45:00,
2013-03-31 19:50:00,47.3,44.2,29.72,West,264,2.0,6.0,89,0.00,,---,0.10,0.00,VWS V14.01,2013-03-31 23:50:00,
2013-03-31 19:55:00,47.3,44.5,29.73,SW,236,2.0,6.0,90,0.00,,---,0.10,0.00,VWS V14.01,2013-03-31 23:55:00,
2013-03-31 20:00:00,47.3,44.5,29.73,NW,311,0.0,3.0,90,0.00,,---,0.10,0.00,VWS V14.01,2013-04-01 00:00:00,
2013-03-31 20:05:00,47.3,44.5,29.73,WSW,252,0.0,5.0,90,0.00,,---,0.10,0.00,VWS V14.01,2013-04-01 00:05:00,
2013-03-31 20:10:00,47.3,44.5,29.73,WSW,258,2.0,5.0,90,0.00,,---,0.10,0.00,VWS V14.01,2013-04-01 00:10:00,
2013-03-31 20:20:00,47.3,44.2,29.74,West,273,0.0,6.0,89,0.00,,---,0.10,0.00,VWS V14.01,2013-04-01 00:20:00,
2013-03-31 20:30:00,47.4,44.3,29.74,NW,308,0.0,5.0,89,0.00,,---,0.10,0.00,VWS V14.01,2013-04-01 00:30:00,
2013-03-31 20:35:00,47.4,44.3,29.74,WNW,294,0.0,6.0,89,0.00,,---,0.10,0.00,VWS V14.01,2013-04-01 00:35:00,
2013-03-31 20:45:00,47.5,44.1,29.75,West,274,10.0,10.0,88,0.00,,---,0.10,0.00,VWS V14.01,2013-04-01 00:45:00,
2013-03-31 20:55:00,47.6,43.9,29.75,NW,311,0.0,6.0,87,0.00,,---,0.10,0.00,VWS V14.01,2013-04-01 00:55:00,
2013-03-31 21:00:00,47.5,43.8,29.75,SW,219,0.0,4.0,87,0.00,,---,0.10,0.00,VWS V14.01,2013-04-01 01:00:00,
2013-03-31 21:10:00,47.2,43.5,29.76,NW,305,0.0,7.0,87,0.00,,---,0.10,0.00,VWS V14.01,2013-04-01 01:10:00,
2013-03-31 21:20:00,46.9,43.5,29.76,North,350,0.0,5.0,88,0.00,,---,0.10,0.00,VWS V14.01,2013-04-01 01:20:00,
2013-03-31 21:25:00,46.8,43.4,29.76,West,262,0.0,5.0,88,0.00,,---,0.10,0.00,VWS V14.01,2013-04-01 01:25:00,
2013-03-31 21:30:00,46.6,43.2,29.76,NW,317,0.0,3.0,88,0.00,,---,0.10,0.00,VWS V14.01,2013-04-01 01:30:00,
2013-03-31 21:35:00,46.5,43.1,29.76,SW,233,0.0,7.0,88,0.00,,---,0.10,0.00,VWS V14.01,2013-04-01 01:35:00,
2013-03-31 21:45:00,46.3,43.0,29.76,West,275,4.0,6.0,88,0.00,,---,0.10,0.00,VWS V14.01,2013-04-01 01:45:00,
2013-03-31 21:50:00,46.2,42.8,29.76,WNW,287,0.0,5.0,88,0.00,,---,0.10,0.00,VWS V14.01,2013-04-01 01:50:00,
2013-03-31 22:00:00,46.1,42.8,29.76,WSW,258,1.0,5.0,88,0.00,,---,0.10,0.00,VWS V14.01,2013-04-01 02:00:00,
2013-03-31 22:10:00,46.1,42.8,29.76,SW,219,0.0,4.0,88,0.00,,---,0.10,0.00,VWS V14.01,2013-04-01 02:10:00,
2013-03-31 22:15:00,46.1,42.8,29.76,WSW,258,3.0,7.0,88,0.00,,---,0.10,0.00,VWS V14.01,2013-04-01 02:15:00,
2013-03-31 22:20:00,46.1,42.8,29.76,West,271,0.0,5.0,88,0.00,,---,0.10,0.00,VWS V14.01,2013-04-01 02:20:00,
2013-03-31 22:25:00,46.1,42.8,29.76,West,270,3.0,7.0,88,0.00,,---,0.10,0.00,VWS V14.01,2013-04-01 02:25:00,
2013-03-31 22:30:00,46.1,42.8,29.76,WSW,247,5.0,8.0,88,0.00,,---,0.10,0.00,VWS V14.01,2013-04-01 02:30:00,
2013-03-31 22:40:00,46.1,42.8,29.75,SSW,209,5.0,9.0,88,0.00,,---,0.10,0.00,VWS V14.01,2013-04-01 02:40:00,
2013-03-31 22:50:00,46.1,42.8,29.75,WSW,241,7.0,7.0,88,0.00,,---,0.10,0.00,VWS V14.01,2013-04-01 02:50:00,
2013-03-31 22:55:00,46.0,42.7,29.75,SW,236,5.0,7.0,88,0.00,,---,0.10,0.00,VWS V14.01,2013-04-01 02:55:00,
2013-03-31 23:00:00,46.0,42.7,29.75,WSW,238,4.0,6.0,88,0.00,,---,0.10,0.00,VWS V14.01,2013-04-01 03:00:00,
2013-03-31 23:10:00,45.9,42.5,29.74,West,271,0.0,8.0,88,0.00,,---,0.10,0.00,VWS V14.01,2013-04-01 03:10:00,
2013-03-31 23:15:00,45.8,42.5,29.74,West,263,2.0,6.0,88,0.00,,---,0.10,0.00,VWS V14.01,2013-04-01 03:15:00,
2013-03-31 23:25:00,45.8,42.8,29.74,WSW,257,3.0,7.0,89,0.00,,---,0.10,0.00,VWS V14.01,2013-04-01 03:25:00,
2013-03-31 23:30:00,45.7,42.7,29.73,West,271,3.0,8.0,89,0.00,,---,0.10,0.00,VWS V14.01,2013-04-01 03:30:00,
2013-03-31 23:35:00,45.7,42.7,29.73,WNW,286,0.0,10.0,89,0.00,,---,0.10,0.00,VWS V14.01,2013-04-01 03:35:00,
2013-03-31 23:40:00,45.7,42.7,29.73,West,262,0.0,10.0,89,0.00,,---,0.10,0.00,VWS V14.01,2013-04-01 03:40:00,
2013-03-31 23:45:00,45.6,42.5,29.73,SW,222,2.0,7.0,89,0.00,,---,0.10,0.00,VWS V14.01,2013-04-01 03:45:00,
2013-03-31 23:50:00,45.6,42.5,29.73,West,272,2.0,8.0,89,0.00,,---,0.10,0.00,VWS V14.01,2013-04-01 03:50:00,